Kars, Turkey

12:29 PM +03 on April 25, 2017 (GMT +0300)
Kars

Weather History for LTCF - November, 2012

Change the Weather History Date:

Tuesday, November 6, 2012

  Actual Average Record
Temperature  
Mean Temperature 46 °F -  
Max Temperature 61 °F 40 °F - ()
Min Temperature 30 °F 22 °F - ()
Degree Days  
Heating Degree Days 20    
Moisture  
Dew Point 31 °F    
Average Humidity 67    
Maximum Humidity 100    
Minimum Humidity 16    
Precipitation  
Precipitation 0.00 in 0.03 in - ()
Sea Level Pressure  
Sea Level Pressure 30.15 in    
Wind  
Wind Speed 2 mph ()    
Max Wind Speed 9 mph    
Max Gust Speed -    
Visibility 6.2 miles    
Events      
T = Trace of Precipitation, MM = Missing Value Source: Averaged Metar Reports

Daily Weather History Graph

Daily Weather History Graph

Search for Another Location

Airport or City:

Trip Planner

Search our weather history database for the weather conditions in past years. The results will help you decide how hot, cold, wet, or windy it might be!

Date:

Astronomy

Nov. 06, 2012 Rise Set
Actual Time 5:43 AM EET 3:58 PM EET
Civil Twilight 5:14 AM EET 4:26 PM EET
Nautical Twilight 4:42 AM EET 4:59 PM EET
Astronomical Twilight 4:10 AM EET 5:31 PM EET
Moon 10:14 PM EET (11/6) 11:23 AM EET (11/6)
Length of Visible Light 11h 12m
Length of Day
10h 14m
Waning Gibbous, 56% of the Moon is Illuminated
Nov 6
Waning Gibbous
Nov 7
Last Quarter
Nov 14
New
Nov 20
First Quarter
Nov 28
Full

Hourly Weather History & Observations

Time (EET) Temp. Windchill Dew Point Humidity Pressure Visibility Wind Dir Wind Speed Gust Speed Precip Events Conditions
12:50 AM 32.0 °F - 30.2 °F 93% 30.21 in - Calm Calm - N/A   Clear
1:50 AM 32.0 °F 28.7 °F 30.2 °F 93% 30.18 in 6.2 mi West 3.5 mph - N/A   Scattered Clouds
2:00 AM 32 °F - 31 °F 92%  in 6 mi West 3.5 mph - -   Partly Cloudy
2:50 AM 33.8 °F 29.6 °F 30.2 °F 87% 30.18 in 6.2 mi West 4.6 mph - N/A   Scattered Clouds
3:50 AM 33.8 °F - 32.0 °F 93% 30.18 in 6.2 mi Calm Calm - N/A   Scattered Clouds
4:50 AM 32.0 °F - 30.2 °F 93% 30.15 in 6.2 mi WNW 2.3 mph - N/A   Scattered Clouds
5:50 AM 32.0 °F - 32.0 °F 100% 30.15 in 6.2 mi Calm Calm - N/A   Scattered Clouds
6:50 AM 32.0 °F - 30.2 °F 93% 30.18 in 6.2 mi Variable 1.2 mph - N/A   Scattered Clouds
7:50 AM 37.4 °F - 33.8 °F 87% 30.18 in 6.2 mi Calm Calm - N/A   Mostly Cloudy
8:00 AM 38 °F - 34 °F 79%  in 6 mi Calm Calm - -   Mostly Cloudy
8:50 AM 46.4 °F - 33.8 °F 62% 30.15 in 6.2 mi Variable 1.2 mph - N/A   Mostly Cloudy
9:50 AM 51.8 °F - 35.6 °F 54% 30.15 in 6.2 mi Variable 1.2 mph - N/A   Scattered Clouds
10:50 AM 55.4 °F - 32.0 °F 41% 30.12 in 6.2 mi West 8.1 mph - N/A   Scattered Clouds
11:50 AM 59.0 °F - 26.6 °F 29% 30.12 in 6.2 mi WSW 8.1 mph - N/A   Scattered Clouds
12:50 PM 59.0 °F - 28.4 °F 31% 30.12 in 6.2 mi SSW 9.2 mph - N/A   Scattered Clouds
1:50 PM 60.8 °F - 26.6 °F 27% 30.09 in 6.2 mi Variable 2.3 mph - N/A   Scattered Clouds
2:00 PM 61 °F - 26 °F 16%  in 6 mi SW 2.3 mph - -   Scattered Clouds
2:50 PM 57.2 °F - 33.8 °F 41% 30.09 in 6.2 mi SW 4.6 mph - N/A   Partly Cloudy
3:50 PM 53.6 °F - 33.8 °F 47% 30.12 in 6.2 mi SW 4.6 mph - N/A   Partly Cloudy
4:50 PM 48.2 °F - 30.2 °F 50% 30.12 in 6.2 mi West 6.9 mph - N/A   Partly Cloudy
5:50 PM 44.6 °F - 33.8 °F 66% 30.15 in 6.2 mi SSE 2.3 mph - N/A   Partly Cloudy
6:50 PM 42.8 °F - 30.2 °F 61% 30.15 in 6.2 mi Calm Calm - N/A   Partly Cloudy
7:50 PM 41.0 °F - 32.0 °F 70% 30.18 in 6.2 mi Calm Calm - N/A   Partly Cloudy
8:00 PM 42 °F - 32 °F 59%  in 6 mi Calm Calm - -   Scattered Clouds
8:50 PM 39.2 °F - 32.0 °F 75% 30.18 in 6.2 mi Calm Calm - N/A   Partly Cloudy
9:50 PM 37.4 °F 33.8 °F 30.2 °F 75% 30.18 in 6.2 mi WNW 4.6 mph - N/A   Partly Cloudy
10:50 PM 37.4 °F 32.1 °F 30.2 °F 75% 30.18 in - West 6.9 mph - N/A   Clear
11:50 PM 37.4 °F 34.9 °F 30.2 °F 75% 30.18 in - SSW 3.5 mph - N/A   Clear